CW1661 Weather Reports


Display with metric or nautical units.
time (UTC)temp
F
wind
direction
speed
MPH
gust
MPH
rain 1hr
in
rain 24hr
in
rain mn
in
humidity
%
barometer
mb
20260503203219 82 0.0 0.0 0.00 0.00 0.00 53 1009.9
20260503202242 81 0.0 0.0 0.00 0.00 0.00 52 1010.0
20260503201219 80 0.0 0.0 0.00 0.00 0.00 54 1010.1
20260503200219 81 0.0 0.0 0.00 0.00 0.00 51 1010.2
20260503195242 81 0.0 0.0 0.00 0.00 0.00 51 1010.5
20260503194219 80 0.0 0.0 0.00 0.00 0.00 55 1010.6
20260503193219 80 0.0 0.0 0.00 0.00 0.00 51 1010.6
20260503192219 80 0.0 0.0 0.00 0.00 0.00 54 1010.8
20260503191219 79 0.0 0.0 0.00 0.00 0.00 57 1010.9
20260503190218 78 0.0 0.0 0.00 0.00 0.00 54 1010.9
20260503185219 79 0.0 0.0 0.00 0.00 0.00 56 1011.1
20260503184219 78 0.0 0.0 0.00 0.00 0.00 57 1011.2
20260503183219 77 0.0 0.0 0.00 0.00 0.00 59 1011.4
20260503182219 77 0.0 0.0 0.00 0.00 0.00 59 1011.4
20260503181242 76 0.0 0.0 0.00 0.00 0.00 57 1011.4
20260503180219 76 0.0 0.0 0.00 0.00 0.00 60 1011.5
20260503175219 76 0.0 0.0 0.00 0.00 0.00 60 1011.6
20260503174219 75 0.0 0.0 0.00 0.00 0.00 62 1011.6
20260503173242 74 0.0 0.0 0.00 0.00 0.00 68 1011.7
20260503172305 71 0.0 0.0 0.00 0.00 0.00 68 1011.8
20260503171218 70 0.0 0.0 0.00 0.00 0.00 70 1011.8
20260503170219 69 0.0 0.0 0.00 0.00 0.00 70 1012.0
20260503150219 53 0.0 0.0 0.00 0.00 0.00 93 1012.4
20260503140220 49 0.0 0.0 0.00 0.00 0.00 92 1012.2
20260503131243 48 0.0 0.0 0.00 0.00 0.00 91 1012.1
20260503130220 48 0.0 0.0 0.00 0.00 0.00 91 1012.1
20260503120220 49 0.0 0.0 0.00 0.00 0.00 90 1012.2
20260503110220 49 0.0 0.0 0.00 0.00 0.00 89 1012.5
20260503100220 50 0.0 0.0 0.00 0.00 0.00 88 1012.4
20260503090220 51 0.0 0.0 0.00 0.00 0.00 87 1012.5
20260503081220 52 0.0 0.0 0.00 0.00 0.00 86 1012.5
20260503080220 53 0.0 0.0 0.00 0.00 0.00 86 1012.5
20260503072220 54 0.0 0.0 0.00 0.00 0.00 85 1012.3
20260503071220 54 0.0 0.0 0.00 0.00 0.00 84 1012.3
20260503070220 54 0.0 0.0 0.00 0.00 0.00 84 1012.4
20260503060220 56 0.0 0.0 0.00 0.00 0.00 82 1012.4
20260503054219 57 0.0 0.0 0.00 0.00 0.00 82 1012.2
20260503053220 57 0.0 0.0 0.00 0.00 0.00 81 1012.1
20260503052219 58 0.0 0.0 0.00 0.00 0.00 80 1012.2
20260503051219 58 0.0 0.0 0.00 0.00 0.00 80 1012.0
20260503050219 59 0.0 0.0 0.00 0.00 0.00 79 1012.1
20260503045219 59 0.0 0.0 0.00 0.00 0.00 78 1012.2
20260503044220 60 0.0 0.0 0.00 0.00 0.00 78 1012.2
20260503043219 60 0.0 0.0 0.00 0.00 0.00 77 1011.9
20260503042219 61 0.0 0.0 0.00 0.00 0.00 77 1011.7
20260503041219 62 0.0 0.0 0.00 0.00 0.00 74 1011.7
20260503040219 63 0.0 0.0 0.00 0.00 0.00 72 1011.6
20260503035219 64 0.0 0.0 0.00 0.00 0.00 71 1011.5
20260503034306 65 0.0 0.0 0.00 0.00 0.00 70 1011.3
20260503033243 66 0.0 0.0 0.00 0.00 0.00 70 1011.1
20260503032219 66 0.0 0.0 0.00 0.00 0.00 68 1010.9
20260503031219 67 0.0 0.0 0.00 0.00 0.00 67 1010.8
20260503030219 68 0.0 0.0 0.00 0.00 0.00 64 1010.6
20260503025243 68 0.0 0.0 0.00 0.00 0.00 65 1010.7
20260503024243 69 0.0 0.0 0.00 0.00 0.00 68 1010.7
20260503023243 70 0.0 0.0 0.00 0.00 0.00 67 1010.6
20260503022220 70 0.0 0.0 0.00 0.00 0.00 65 1010.6
20260503021219 71 0.0 0.0 0.00 0.00 0.00 64 1010.5
20260503020219 72 0.0 0.0 0.00 0.00 0.00 62 1010.5
20260503015219 72 0.0 0.0 0.00 0.00 0.00 62 1010.5
20260503014219 73 0.0 0.0 0.00 0.00 0.00 61 1010.4
20260503013219 73 0.0 0.0 0.00 0.00 0.00 62 1010.5
20260503012219 74 0.0 0.0 0.00 0.00 0.00 62 1010.5
20260503011219 75 0.0 0.0 0.00 0.00 0.00 61 1010.5
20260503010219 75 0.0 0.0 0.00 0.00 0.00 60 1010.5
20260503005219 76 0.0 0.0 0.00 0.00 0.00 59 1010.7
20260503004219 77 0.0 0.0 0.00 0.00 0.00 57 1010.7
20260503003219 79 0.0 0.0 0.00 0.00 0.00 57 1010.7
20260503002219 79 0.0 0.0 0.00 0.00 0.00 55 1010.6
20260503001242 80 0.0 0.0 0.00 0.00 0.00 55 1010.8
20260503000219 80 0.0 0.0 0.00 0.00 0.00 55 1010.8
20260502235219 80 0.0 0.0 0.00 0.00 0.00 59 1010.9
20260502234219 80 0.0 0.0 0.00 0.00 0.00 56 1011.1
20260502233305 80 0.0 0.0 0.00 0.00 0.00 55 1011.2
20260502232219 80 0.0 0.0 0.00 0.00 0.00 56 1011.2
20260502231219 80 0.0 0.0 0.00 0.00 0.00 57 1011.6
20260502230219 80 0.0 0.0 0.00 0.00 0.00 57 1011.8
20260502225219 79 0.0 0.0 0.00 0.00 0.00 58 1011.9
20260502224219 79 0.0 0.0 0.00 0.00 0.00 58 1011.9
20260502223219 78 0.0 0.0 0.00 0.00 0.00 61 1012.1
20260502222219 78 0.0 0.0 0.00 0.00 0.00 60 1012.2
20260502221242 78 0.0 0.0 0.00 0.00 0.00 62 1012.4
20260502220220 77 0.0 0.0 0.00 0.00 0.00 61 1012.4
20260502215219 77 0.0 0.0 0.00 0.00 0.00 62 1012.6
20260502214219 77 0.0 0.0 0.00 0.00 0.00 63 1012.6
20260502213219 76 0.0 0.0 0.00 0.00 0.00 63 1012.7
20260502212219 75 0.0 0.0 0.00 0.00 0.00 68 1012.8
20260502211219 75 0.0 0.0 0.00 0.00 0.00 63 1012.8
20260502210219 75 0.0 0.0 0.00 0.00 0.00 68 1012.9
20260502205219 74 0.0 0.0 0.00 0.00 0.00 65 1013.0
20260502204219 73 0.0 0.0 0.00 0.00 0.00 70 1013.2